Home > Weather > Oberpullendorf > Past weeks

Flag for Austria Past Weather in Oberpullendorf, Burgenland, Austria — Yesterday and Last 2 Weeks

Now
71 °F

Mild.


Feels Like: 74 °F
Forecast: 59 / 71 °F
Wind: 3 mph from Southeast

Location: Eisenstadt

Current Time: May 29, 2016 at 11:41:39 AM

Latest Report: May 29, 2016 at 10:00 AM


Visibility: N/A

Pressure: 29.73 "Hg

Humidity: 73%

Dew Point: 62 °F

Location of OberpullendorfLocation

Past Weather in Oberpullendorf — Graph

°F

Oberpullendorf Temperature Yesterday

Maximum temperature yesterday: 81 °F (at 3:00 PM)
Minimum temperature yesterday: 60 °F (at 6:00 AM)
Average temperature yesterday: 69 °F

High & Low Weather Summary for the Past Weeks

 TemperatureHumidityPressure
High81 °F (May 28, 3:00 PM)95% (May 28, 7:00 AM)30.13 "Hg (May 28, 7:00 AM)
Low45 °F (May 16, 5:00 AM)35% (May 17, 2:00 PM)29.50 "Hg (May 14, 10:00 AM)
Average61 °F64%29.92 "Hg
* Reported May 14 10:00 AM — May 29 10:00 AM, Oberpullendorf, Weather by CustomWeather, © 2016

Note: Actual official high and low records may vary slightly from our data, if they occured in-between our weather recording intervals... More about our weather records

Advertising

Oberpullendorf Weather History for the Previous 24 Hours

Scroll right to see more
 ConditionsComfort  
Time TempWeatherWind HumidityBarometerVisibility
10:00 AM
Sun, May 29
71 °FMild.3 mph73%29.73 "HgN/A
9:00 AM71 °FMild.3 mph75%29.74 "HgN/A
8:00 AM68 °FScattered clouds.1 mph80%29.74 "Hg9 mi
7:00 AM65 °FPassing clouds.1 mph87%29.75 "Hg9 mi
6:00 AM63 °FSunny.1 mph92%29.75 "Hg9 mi
5:00 AM64 °FPassing clouds.3 mph92%29.75 "Hg6 mi
4:00 AM63 °FPassing clouds.3 mph89%29.77 "Hg9 mi
3:00 AM65 °FMild.1 mph85%29.77 "HgN/A
2:00 AM68 °FPassing clouds.5 mph79%29.78 "Hg9 mi
1:00 AM66 °FMild.2 mph85%29.79 "HgN/A
12:00 AM66 °FMild.2 mph84%29.81 "HgN/A
11:00 PM
Sat, May 28
67 °FPassing clouds.2 mph80%29.82 "Hg6 mi
9:00 PM69 °FMild.2 mph76%29.82 "HgN/A
8:00 PM71 °FOvercast.2 mph74%29.82 "Hg9 mi
7:00 PM74 °FOvercast.3 mph62%29.80 "Hg9 mi
6:00 PM74 °FMild.2 mph65%29.82 "HgN/A
5:00 PM76 °FOvercast.3 mph55%29.83 "Hg9 mi
4:00 PM78 °FWarm.5 mph51%29.84 "HgN/A
3:00 PM81 °FWarm.6 mph43%29.85 "HgN/A
2:00 PM79 °FPartly sunny.7 mph49%29.87 "Hg9 mi
1:00 PM77 °FWarm.5 mph55%29.89 "HgN/A
12:00 PM76 °FMild.3 mph60%29.90 "HgN/A
Weather by CustomWeather, © 2016

See weather overviewHow to use our weather pages